Regional Weather Roundup
Issued by NWS New Orleans/Baton Rouge, LA

Home | Current Version | Previous Version | Text Only | Print | Product List | Glossary Off
Versions: 1 2 3 4 5 6 7 8 9 10 11 12 13 14 15 16 17 18 19 20 21 22 23 24 25 26 27 28 29 30 31 32 33 34 35 36 37 38 39 40 41 42 43 44 45 46 47 48 49 50

195
ASUS44 KLIX 301805
RWRLIX
NEW ORLEANS REGIONAL WEATHER ROUNDUP
NATIONAL WEATHER SERVICE NEW ORLEANS LA
1200 PM CST FRI JAN 30 2015

NOTE: "FAIR" INDICATES FEW OR NO CLOUDS BELOW 12,000 FEET WITH NO
      SIGNIFICANT WEATHER AND/OR OBSTRUCTIONS TO VISIBILITY.
      SKY/WX - SKY CONDITION AND SIGNIFICANT WEATHER.
      TMP - AIR TEMPERATURE.     DP    - DEWPOINT TEMPERATURE.
      RH  - RELATIVE HUMIDITY.   PRES  - PRESSURE.
      HI  - HEAT INDEX.          WCI   - WIND CHILL INDEX.

*  THESE STATIONS ARE NOT NWS OR FAA STATIONS AND ARE NOT UNDER
   NWS QUALITY CONTROL.

LAZ038-040-048-061>063-065>067-069-301900-
SOUTHEAST LOUISIANA

CITY           SKY/WX    TMP DP  RH WIND       PRES   REMARKS
N.O. AUDUBON     N/A     55  41  57 MISG        N/A
6HR MIN TEMP:  49; 6HR MAX TEMP:  56;

N.O. INTL ARPT PTSUNNY   53  38  56 NE15      30.38F
6HR MIN TEMP:  47; 6HR MAX TEMP:  54;

N.O. LAKEFRONT PTSUNNY   56  37  49 N10       30.38F
6HR MIN TEMP:  50; 6HR MAX TEMP:  56;

N.O. DOWNTOWN* NOT AVBL
SLIDELL        PTSUNNY   55  33  43 N10       30.37F
6HR MIN TEMP:  46; 6HR MAX TEMP:  56;

BATON ROUGE    PTSUNNY   55  32  41 N9        30.39F
6HR MIN TEMP:  43; 6HR MAX TEMP:  55;

BOOTHVILLE     MOSUNNY   53  43  68 N10G21    30.37F
6HR MIN TEMP:  52; 6HR MAX TEMP:  55;

BELLE CHASSE   CLOUDY    56  37  49 NE10      30.36F
6HR MIN TEMP:  50; 6HR MAX TEMP:  56;

BOGALUSA*        N/A     55  32  42 N12       30.41F
6HR MIN TEMP:  44; 6HR MAX TEMP:  55;

GALLIANO*      CLEAR     57  42  57 N8        30.37F
6HR MIN TEMP:  51; 6HR MAX TEMP:  57;

NEW ROADS*       N/A     54  32  43 N7        30.41F
6HR MIN TEMP:  42; 6HR MAX TEMP:  54;

GONZALES*        N/A     54  35  49 N6        30.38F
6HR MIN TEMP:  46; 6HR MAX TEMP:  54;

HAMMOND*       PTSUNNY   55  32  41 N8        30.40F
HOUMA*         SUNNY     55  39  54 N17       30.37F
PORT FOURCHON* CLEAR     55  45  67 NE17      30.38F

$$

MSZ070-080>082-301900-
SOUTHERN MISSISSIPPI

CITY           SKY/WX    TMP DP  RH WIND       PRES   REMARKS
MCCOMB         PTSUNNY   53  30  41 N9        30.40F
6HR MIN TEMP:  42; 6HR MAX TEMP:  53;

GULFPORT       PTSUNNY   56  32  40 N14G20    30.35F
6HR MIN TEMP:  46; 6HR MAX TEMP:  56;

BILOXI         PTSUNNY   55  32  42 NE13      30.35F
6HR MIN TEMP:  46; 6HR MAX TEMP:  55;

PASCAGOULA     PTSUNNY   54  32  43 N13       30.35F
6HR MIN TEMP:  45; 6HR MAX TEMP:  55;

STENNIS ARPT*  SUNNY     54  27  35 N12G17    30.37F

$$

COASTAL OBSERVATIONS
LAKE AND NEARSHORE STATIONS

STATION/POSITION TIME  TEMP    WIND        PRES    WAVE
                       AIR SEA DIR/SP/G            HT/PER
                 (UTC) (F)     (DEG/KT/KT) (MB)    (FT/S)
PASCAGOULA       1800   54     340/ 10/ 13 1027.2
WAVELAND YACHT   1800   52      10/  8/ 12 1027.3
GRAND ISLE       1800   54 62   50/ 12/ 17 1028.4
SOUTHWEST PASS   1800   58 46   40/ 20/ 23 1027.8
NEW CANAL        1800   51 55   10/ 10/ 11 1029.1
SHELL BEACH      1800   50 56   20/ 12/ 15 1028.4

OFFSHORE STATIONS

STATION/POSITION TIME  TEMP    WIND        PRES    WAVE
                       AIR SEA DIR/SP/G            HT/PER
                 (UTC) (F)     (DEG/KT/KT) (MB)    (FT/S)
64 S DAUPHIN ISL 1651   53 69   30/ 19/ 21 1027.4    6/ 6

$$




USA.gov is the U.S. government's official web portal to all federal, state and local government web resources and services.